Aeroporto :
LOGIN :

Iscrizione | Disclaimer

   EN    FR    IT 

 










Sommario :    VFR   VFR Marginale   IFR   IFR Intensivo   IFR Molto Intensivo
Visibilità : 
Base nubi : 
>= 8 km
>= 3000ft
5 / 8 km
1000 / 3000 ft
1500m / 5 km
500 / 1000 ft
800 / 1500m
200 / 500 ft
< 800m
< 200 ft
Simboli :   Temporali  Nebbia  Neve Forte  Precipitazioni Forti  Vento > 20 kt
SIGMETs :   Varie  Temporali  Ghiacco  Turbolenza  Onda orograficha  Ceneri Vulcaniche






- Altitudine del aeroporto : 1674 ft
- Codice IATA : BRN


LSZB - Bern Belp

ULTIMO METAR :
  • 230520Z 07002KT CAVOK 01/M00 Q1026 NOSIG

METARs OBSOLETI :
  • 230450Z AUTO 34003KT 9999 NCD 01/M00 Q1026
  • 230420Z AUTO 32003KT 9999 NCD 02/01 Q1026
  • 230350Z AUTO 33003KT 9999 NCD 02/01 Q1025
  • 230320Z AUTO 32003KT 9999 FEW046 04/02 Q1025
  • 230250Z AUTO 32003KT 9999 FEW047 03/01 Q1025

TAF TAF LSZB
Valido dal 23 a 06 ore il 23 a 15 ore UTC


230525Z 2306/2315 35003KT CAVOK
ATIS : +41 22 417 40 76



MetMap, La meteo Aeronautica in un colpo d'occhio ! - Copyright ORBIFLY Dicembre 2007 - Disclaimer

ORBIFLY MET'MAP TEAM :

Programmazione e sviluppo : Alexandra Zaïnal
Concezione : Baudouin d'Aumeries
Aiuto per la programmazione : Marc-Olivier Méhu
Supporto tecnico e logistico : Manuel Goepfert
Aiuto per la traduzione : Arnaldo La Scala

Contatto : metmap@orbifly.com




FONTI E CREDITI :

   NOAA